Weather History for Rockland, ME

Change the Weather History Date:

Sunday, December 30, 2012

  Actual Average Record
Temperature  
Mean Temperature 20 °F -  
Max Temperature 26 °F 31 °F 48 °F (2003)
Min Temperature 14 °F 18 °F 6 °F (2013)
Degree Days  
Heating Degree Days 45    
Moisture  
Dew Point 14 °F    
Average Humidity 75    
Maximum Humidity 100    
Minimum Humidity 53    
Precipitation  
Precipitation 0.01 in - - ()
Sea Level Pressure  
Sea Level Pressure 29.49 in    
Wind  
Wind Speed 13 mph (NW)    
Max Wind Speed 24 mph    
Max Gust Speed 38 mph    
Visibility 6 miles    
Events      
Averages and records for this station are not official NWS values.
T = Trace of Precipitation, MM = Missing Value Source: NWS Daily Summary

Daily Weather History Graph

Daily Weather History Graph

Search for Another Location

Airport:

Trip Planner

Search our weather history database for the weather conditions in past years. The results will help you decide how hot, cold, wet, or windy it might be!

Date:

Astronomy

Dec. 30, 2012 Rise Set
Actual Time 7:11 AM EST 4:07 PM EST
Civil Twilight 6:38 AM EST 4:40 PM EST
Nautical Twilight 6:01 AM EST 5:16 PM EST
Astronomical Twilight 5:26 AM EST 5:51 PM EST
Moon 6:40 PM EST (12/30) 8:13 AM EST (12/30)
Length of Visible Light 10h 02m
Length of Day
8h 56m
Waning Gibbous, 95% of the Moon is Illuminated
Dec 30
Waning Gibbous
Jan 4
Last Quarter
Jan 11
New
Jan 18
First Quarter
Jan 26
Full

Hourly Weather History & Observations

Time (EST) Temp. Windchill Dew Point Humidity Pressure Visibility Wind Dir Wind Speed Gust Speed Precip Events Conditions
12:15 AM 24.8 °F 11.5 °F 24.8 °F 100% 29.40 in 0.8 mi North 17.3 mph 23.0 mph N/A   Overcast
12:35 AM 24.8 °F 12.9 °F 24.8 °F 100% 29.39 in 0.5 mi North 13.8 mph 21.9 mph N/A   Overcast
12:55 AM 24.8 °F 14.0 °F 24.8 °F 100% 29.37 in 0.5 mi North 11.5 mph 23.0 mph N/A   Overcast
1:15 AM 24.8 °F 14.6 °F 23.0 °F 93% 29.34 in 0.5 mi North 10.4 mph 25.3 mph N/A   Overcast
1:55 AM 23.0 °F 11.7 °F 21.2 °F 93% 29.34 in 1.0 mi NNW 11.5 mph 18.4 mph N/A   Overcast
2:15 AM 23.0 °F 13.1 °F 21.2 °F 93% 29.33 in 0.8 mi NNW 9.2 mph 18.4 mph N/A   Overcast
2:35 AM 21.2 °F 10.1 °F 21.2 °F 100% 29.34 in 1.0 mi NNW 10.4 mph 18.4 mph N/A   Overcast
2:55 AM 23.0 °F 13.1 °F 19.4 °F 86% 29.35 in 1.2 mi NNW 9.2 mph 19.6 mph N/A   Overcast
3:15 AM 21.2 °F 8.3 °F 19.4 °F 93% 29.34 in 1.0 mi NNW 13.8 mph 21.9 mph N/A   Overcast
3:35 AM 21.2 °F 9.5 °F 19.4 °F 93% 29.34 in 1.0 mi NNW 11.5 mph 19.6 mph N/A   Overcast
3:55 AM 21.2 °F 11.7 °F 19.4 °F 93% 29.34 in 1.0 mi NNW 8.1 mph 18.4 mph N/A   Overcast
4:15 AM 21.2 °F 11.7 °F 19.4 °F 93% 29.34 in 1.0 mi NNW 8.1 mph 21.9 mph N/A   Overcast
4:35 AM 21.2 °F 12.6 °F 19.4 °F 93% 29.34 in 0.8 mi NNW 6.9 mph 21.9 mph N/A   Overcast
4:55 AM 21.2 °F 10.9 °F 19.4 °F 93% 29.34 in 1.0 mi NNW 9.2 mph 17.3 mph N/A   Overcast
5:15 AM 21.2 °F 10.9 °F 21.2 °F 100% 29.34 in 1.0 mi NNW 9.2 mph 18.4 mph N/A   Overcast
5:35 AM 21.2 °F 8.9 °F 21.2 °F 100% 29.35 in 1.2 mi NNW 12.7 mph 19.6 mph N/A   Overcast
5:55 AM 23.0 °F 13.9 °F 19.4 °F 86% 29.35 in 1.2 mi NNW 8.1 mph 21.9 mph N/A   Overcast
6:15 AM 23.0 °F 13.1 °F 19.4 °F 86% 29.36 in 1.5 mi NW 9.2 mph 18.4 mph N/A   Overcast
6:35 AM 23.0 °F 12.4 °F 19.4 °F 86% 29.37 in 2.0 mi NW 10.4 mph 19.6 mph N/A   Overcast
6:55 AM 23.0 °F 12.4 °F 19.4 °F 86% 29.39 in 2.5 mi NW 10.4 mph 17.3 mph N/A   Overcast
7:15 AM 23.0 °F 11.7 °F 19.4 °F 86% 29.39 in 2.0 mi NW 11.5 mph 20.7 mph N/A   Overcast
7:35 AM 23.0 °F 13.1 °F 19.4 °F 86% 29.40 in 2.5 mi NW 9.2 mph - N/A   Overcast
7:55 AM 23.0 °F 11.7 °F 19.4 °F 86% 29.41 in 3.0 mi NW 11.5 mph 17.3 mph N/A   Mostly Cloudy
8:15 AM 23.0 °F 11.1 °F 17.6 °F 80% 29.42 in 3.0 mi NW 12.7 mph 19.6 mph N/A   Partly Cloudy
8:35 AM 23.0 °F 12.4 °F 19.4 °F 86% 29.42 in 2.5 mi NW 10.4 mph 17.3 mph N/A   Partly Cloudy
8:55 AM 23.0 °F 12.4 °F 17.6 °F 80% 29.43 in 5.0 mi NW 10.4 mph 20.7 mph N/A   Partly Cloudy
9:15 AM 23.0 °F 10.1 °F 19.4 °F 86% 29.44 in 4.0 mi NW 15.0 mph 26.5 mph N/A   Clear
9:35 AM 24.8 °F 11.9 °F 19.4 °F 80% 29.44 in 3.0 mi WNW 16.1 mph 26.5 mph N/A   Clear
9:55 AM 24.8 °F 13.4 °F 19.4 °F 80% 29.45 in 2.5 mi WNW 12.7 mph 26.5 mph N/A   Clear
10:15 AM 24.8 °F 11.5 °F 19.4 °F 80% 29.44 in 2.5 mi WNW 17.3 mph 31.1 mph N/A   Clear
10:35 AM 24.8 °F 11.9 °F 19.4 °F 80% 29.44 in 5.0 mi WNW 16.1 mph 29.9 mph N/A   Clear
10:55 AM 24.8 °F 11.9 °F 19.4 °F 80% 29.44 in 1.0 mi WNW 16.1 mph 26.5 mph N/A   Clear
11:15 AM 24.8 °F 12.4 °F 19.4 °F 80% 29.44 in 5.0 mi NW 15.0 mph 28.8 mph N/A   Clear
11:35 AM 26.6 °F 14.3 °F 19.4 °F 74% 29.44 in 10.0 mi NW 16.1 mph 24.2 mph N/A   Clear
11:55 AM 26.6 °F 15.2 °F 19.4 °F 74% 29.44 in 6.0 mi WNW 13.8 mph 24.2 mph N/A   Clear
12:15 PM 26.6 °F 14.3 °F 19.4 °F 74% 29.44 in 9.0 mi WNW 16.1 mph 25.3 mph N/A   Partly Cloudy
12:35 PM 26.6 °F 13.8 °F 17.6 °F 69% 29.44 in 3.0 mi NW 17.3 mph 38.0 mph N/A   Partly Cloudy
12:55 PM 26.6 °F 14.7 °F 15.8 °F 64% 29.44 in 10.0 mi NW 15.0 mph 26.5 mph N/A   Clear
1:15 PM 26.6 °F 12.7 °F 15.8 °F 64% 29.45 in 10.0 mi WNW 20.7 mph 31.1 mph N/A   Partly Cloudy
1:35 PM 26.6 °F 14.7 °F 15.8 °F 64% 29.46 in 10.0 mi WNW 15.0 mph 26.5 mph N/A   Partly Cloudy
1:55 PM 26.6 °F 16.8 °F 15.8 °F 64% 29.47 in 8.0 mi NW 10.4 mph 24.2 mph N/A   Clear
2:15 PM 24.8 °F 11.9 °F 15.8 °F 69% 29.47 in 10.0 mi NW 16.1 mph 24.2 mph N/A   Clear
2:35 PM 24.8 °F 13.4 °F 15.8 °F 69% 29.48 in 10.0 mi NW 12.7 mph 23.0 mph N/A   Clear
2:55 PM 24.8 °F 13.4 °F 12.2 °F 59% 29.49 in 8.0 mi WNW 12.7 mph 27.6 mph N/A   Clear
3:15 PM 24.8 °F 14.6 °F 14.0 °F 64% 29.50 in 10.0 mi NW 10.4 mph 21.9 mph N/A   Clear
3:35 PM 24.8 °F 12.9 °F 12.2 °F 59% 29.51 in 10.0 mi WNW 13.8 mph 27.6 mph N/A   Clear
3:55 PM 24.8 °F 14.0 °F 12.2 °F 59% 29.52 in 10.0 mi WNW 11.5 mph 23.0 mph N/A   Clear
4:15 PM 23.0 °F 12.4 °F 10.4 °F 59% 29.53 in 10.0 mi WNW 10.4 mph 23.0 mph N/A   Clear
4:35 PM 21.2 °F 9.5 °F 12.2 °F 68% 29.54 in 10.0 mi WNW 11.5 mph 17.3 mph N/A   Clear
4:55 PM 21.2 °F 10.1 °F 10.4 °F 63% 29.56 in 10.0 mi WNW 10.4 mph - N/A   Clear
5:15 PM 21.2 °F 9.5 °F 10.4 °F 63% 29.57 in 10.0 mi WNW 11.5 mph 17.3 mph N/A   Clear
5:35 PM 19.4 °F 7.9 °F 8.6 °F 63% 29.58 in 10.0 mi WNW 10.4 mph 25.3 mph N/A   Clear
5:55 PM 19.4 °F 5.5 °F 8.6 °F 63% 29.59 in 10.0 mi WNW 15.0 mph 25.3 mph N/A   Clear
6:15 PM 19.4 °F 5.5 °F 8.6 °F 63% 29.60 in 10.0 mi WNW 15.0 mph 31.1 mph N/A   Clear
6:35 PM 19.4 °F 4.1 °F 6.8 °F 58% 29.61 in 10.0 mi WNW 18.4 mph 25.3 mph N/A   Clear
6:55 PM 19.4 °F 3.6 °F 6.8 °F 58% 29.62 in 10.0 mi WNW 19.6 mph 26.5 mph N/A   Clear
7:15 PM 17.6 °F 1.3 °F 6.8 °F 63% 29.63 in 10.0 mi WNW 19.6 mph 26.5 mph N/A   Clear
7:35 PM 17.6 °F 2.7 °F 6.8 °F 63% 29.65 in 10.0 mi WNW 16.1 mph 26.5 mph N/A   Clear
7:55 PM 17.6 °F 2.2 °F 6.8 °F 63% 29.66 in 10.0 mi WNW 17.3 mph 25.3 mph N/A   Clear
8:15 PM 17.6 °F 3.7 °F 6.8 °F 63% 29.65 in 10.0 mi WNW 13.8 mph 24.2 mph N/A   Clear
8:35 PM 17.6 °F 3.7 °F 3.2 °F 53% 29.66 in 10.0 mi WNW 13.8 mph 24.2 mph N/A   Clear
8:55 PM 15.8 °F 1.4 °F 3.2 °F 58% 29.67 in 10.0 mi WNW 13.8 mph 23.0 mph N/A   Clear
9:15 PM 15.8 °F 2.7 °F 3.2 °F 58% 29.68 in 10.0 mi WNW 11.5 mph 25.3 mph N/A   Clear
9:35 PM 15.8 °F 4.2 °F 3.2 °F 58% 29.69 in 10.0 mi WNW 9.2 mph 21.9 mph N/A   Clear
9:55 PM 15.8 °F 2.7 °F 3.2 °F 58% 29.69 in 10.0 mi NW 11.5 mph 26.5 mph N/A   Clear
10:15 PM 15.8 °F 1.4 °F 1.4 °F 53% 29.70 in 10.0 mi WNW 13.8 mph 23.0 mph N/A   Clear
10:35 PM 15.8 °F -0.2 °F 1.4 °F 53% 29.70 in 10.0 mi WNW 17.3 mph 26.5 mph N/A   Clear
10:55 PM 14.0 °F -4.7 °F 3.2 °F 62% 29.69 in 7.0 mi WNW 23.0 mph 33.4 mph N/A   Clear
11:15 PM 14.0 °F -4.7 °F 3.2 °F 62% 29.70 in 5.0 mi WNW 23.0 mph 36.8 mph N/A   Clear
11:35 PM 14.0 °F -4.3 °F 1.4 °F 57% 29.71 in 10.0 mi West 21.9 mph 34.5 mph 0.01 in   Clear
11:55 PM 14.0 °F -5.1 °F 1.4 °F 57% 29.72 in 10.0 mi West 24.2 mph 29.9 mph 0.01 in   Clear